Regional Weather Roundup
Issued by NWS New Orleans/Baton Rouge, LA

Home | Current Version | Previous Version | Graphics & Text | Print | Product List | Glossary On
Versions: 1 2 3 4 5 6 7 8 9 10 11 12 13 14 15 16 17 18 19 20 21 22 23 24 25 26 27 28 29 30 31 32 33 34 35 36 37 38 39 40 41 42 43 44 45 46 47 48 49 50
729
ASUS44 KLIX 200801
RWRLIX
NEW ORLEANS REGIONAL WEATHER ROUNDUP
NATIONAL WEATHER SERVICE NEW ORLEANS LA
300 AM CDT MON OCT 20 2014

NOTE: "FAIR" INDICATES FEW OR NO CLOUDS BELOW 12,000 FEET WITH NO
      SIGNIFICANT WEATHER AND/OR OBSTRUCTIONS TO VISIBILITY.
      SKY/WX - SKY CONDITION AND SIGNIFICANT WEATHER.
      TMP - AIR TEMPERATURE.     DP    - DEWPOINT TEMPERATURE.
      RH  - RELATIVE HUMIDITY.   PRES  - PRESSURE.
      HI  - HEAT INDEX.          WCI   - WIND CHILL INDEX.

*  THESE STATIONS ARE NOT NWS OR FAA STATIONS AND ARE NOT UNDER
   NWS QUALITY CONTROL.

LAZ038-040-048-061>063-065>067-069-200900-
SOUTHEAST LOUISIANA

CITY           SKY/WX    TMP DP  RH WIND       PRES   REMARKS
N.O. AUDUBON     N/A     62  59  91 MISG        N/A
N.O. INTL ARPT CLEAR     61  56  83 CALM      30.04F
N.O. LAKEFRONT CLEAR     68  60  75 E6        30.05F
N.O. DOWNTOWN*   N/A     66  55  68 CALM      30.05S
SLIDELL        CLEAR     51  48  89 CALM      30.05S
BATON ROUGE    PTCLDY    54  51  90 NE5       30.05F
BOOTHVILLE     CLEAR     70  61  73 CALM      30.03F
BELLE CHASSE   CLEAR     56  52  86 CALM      30.04F
BOGALUSA*        N/A     48  45  89 CALM      30.08R
NEW ROADS*       N/A     53  52  97 CALM      30.06S
GONZALES*        N/A     55  55 100 CALM      30.04F
HAMMOND*       NOT AVBL
HOUMA*         CLEAR     58  58  99 CALM      30.04S FOG
PORT FOURCHON* SUNNY     70  59  68 NE3       30.06S

$$

MSZ070-080>082-200900-
SOUTHERN MISSISSIPPI

CITY           SKY/WX    TMP DP  RH WIND       PRES   REMARKS
MCCOMB         CLEAR     50  46  86 CALM      30.06S
GULFPORT       CLEAR     53  51  93 CALM      30.04F
BILOXI         PTCLDY    55  50  83 NE2       30.05S
PASCAGOULA     CLEAR     46  45  96 CALM      30.05F

$$

COASTAL OBSERVATIONS
LAKE AND NEARSHORE STATIONS

STATION/POSITION TIME  TEMP    WIND        PRES    WAVE
                       AIR SEA DIR/SP/G            HT/PER
                 (UTC) (F)     (DEG/KT/KT) (MB)    (FT/S)
PASCAGOULA       0700   59      20/  4/  5 1017.0
WAVELAND YACHT   0700   64      40/  4/  5 1016.7
GRAND ISLE       0700   72 78   70/  8/ 12 1017.4
SOUTHWEST PASS   0700   74 84              1016.9
NEW CANAL        0700   65 72   CALM  /  1 1017.8
SHELL BEACH      0700   70 70   60/  5/  5 1017.2

OFFSHORE STATIONS

STATION/POSITION TIME  TEMP    WIND        PRES    WAVE
                       AIR SEA DIR/SP/G            HT/PER
                 (UTC) (F)     (DEG/KT/KT) (MB)    (FT/S)
64 S DAUPHIN ISL 0655   73 79   80/  8/ 12 1017.4    2/ 5

$$




USA.gov is the U.S. government's official web portal to all federal, state and local government web resources and services.